STARLINK-30092, 57467

Orbit data source: Space-Track

STARLINK-30092, 57467 is a payload satellite owned by SpaceX/Seattle (US) in LEO that was launched on Fri, 28 Jul 2023 UTC via an FALCON 9 launch vehicle from the Air Force Eastern Test Range (AFETR). Payload-class satellites include a variety of spacecraft equipped with specific instruments for various scientific and technological missions. These include communications satellites like Starlink; space stations such as the ISS; scientific satellites like the Hubble; Earth observation satellites from companies like Planet Labs, Umbra, and HawkEye 360; GPS; miniature CubeSats for education and research; and military/defense satellites.

Loading next visibility...
Identifier
57467, 2023-107L
Orbit
LEO
Country
Flag of USUS
Related business
Manufacturer
SpaceX/Seattle
Mission
Operational Commercial Communications
Bus & Motor
STARLINK V2M, Unknown motor
Mass
730 kg wet, ~700 kg dry
Launch date (UTC)
2023-07-28 (3 years ago)
Launch vehicle
FALCON 9
Launch site
Air Force Eastern Test Range (AFETR)
Object type
Payload
Rocket body
Debris
Shape & HBR
Box + 2 Pan, 17.7 m
Radar Cross Section
33.884 m², Large (>1 m²)

Expand to show TLE details & history
Last TLE update: 2 days ago

TLE from 2 days ago
0 STARLINK-30092
1 57467U 23107L   26171.27184948 -.00005844  00000-0 -20284-3 0  9994
2 57467  43.0012 116.9504 0001460 270.1083  89.9601 15.27604889160830
Epoch: 2026-06-20T06:31Z
TLE epoch observation values (Epoch: 2026-06-20T06:31:27.795Z)
Latitude
-0.00003°
Longitude
110.5957°
Altitude
482.75 km
Speed
7.626 km/s
True Right ascension
07h 47m 48s
True Declination
0° 00' 00"
Sunlit
Object was in daylight at epoch
Visualization orbit readout
Latitude
Unknown
Longitude
Unknown
Altitude
Unknown
Speed
Unknown
Apparent Right ascension
Unknown
Apparent Declination
Unknown
Sunlit
N/A
Visualization observer readout
Local Sidereal Time
21:29:34
Azimuth
Unknown
Elevation
Unknown
Doppler factor
Unknown
Orbital elements
Apogee altitude
485.922 km
Perigee altitude
483.918 km
Semi-major axis
6,863.057 km
Eccentricity
0.00015
Inclination
43.0012°
RAAN
116.9504°
Arg. of periapsis
270.1083°
True anomaly
89.97683°
Mean anomaly
89.9601°
Eccentric anomaly
89.96847°
Mean motion
3.81739 °/min
Orbital period
94.31 mins
BSTAR
-0.00020284
Loading maneuver chart data...
Computing Atmospheric mass density...
Loading historical data...
Loading historical data...
Loading historical data...
Loading historical data...
Loading historical data...
Loading historical data...
Loading historical data...

Documentation

Showing up to 5 results
|